Tracking 33744 objects as of 14-Apr-2026
HD Live streaming from Space Station
objects crossing your sky now

STARLINK-31365

Track STARLINK-31365 now!
10-day predictions
STARLINK-31365 is classified as:


NORAD ID: 58973
Int'l Code: 2024-031J
Perigee: 480.6 km
Apogee: 484.1 km
Inclination: 53.2 °
Period: 94.1 minutes
Semi major axis: 6853 km
RCS: Unknown
Launch date: February 15, 2023
Source: United States (US)
Launch site: AIR FORCE WESTERN TEST RANGE (AFWTR)
Your satellite tracking list
Your tracking list is empty




NASA's NSSDC Master Catalog

Two Line Element Set (TLE):
1 58973U 24031J   26104.48496485  .00002047  00000-0  81262-4 0  9999
2 58973  53.1602 130.4247 0002521  69.8527 290.2745 15.30197149122014
Source of the keplerian elements: AFSPC